Weather History for Columbus AFB, MS

Change the Weather History Date:

Thursday, November 7, 2013

  Actual Average Record
Temperature  
Mean Temperature 48 °F -  
Max Temperature 62 °F 65 °F 84 °F (2005)
Min Temperature 34 °F 44 °F 29 °F (2010)
Degree Days  
Heating Degree Days 16    
Moisture  
Dew Point 41 °F    
Average Humidity 76    
Maximum Humidity 100    
Minimum Humidity 36    
Precipitation  
Precipitation 0.00 in - - ()
Sea Level Pressure  
Sea Level Pressure 30.28 in    
Wind  
Wind Speed 12 mph (NNW)    
Max Wind Speed 22 mph    
Max Gust Speed 29 mph    
Visibility 9 miles    
Events Rain    
Averages and records for this station are not official NWS values.
T = Trace of Precipitation, MM = Missing Value Source: NWS Daily Summary

Daily Weather History Graph

Daily Weather History Graph

Search for Another Location

Airport:

Trip Planner

Search our weather history database for the weather conditions in past years. The results will help you decide how hot, cold, wet, or windy it might be!

Date:

Astronomy

Nov. 07, 2013 Rise Set
Actual Time 6:18 AM CST 4:56 PM CST
Civil Twilight 5:52 AM CST 5:22 PM CST
Nautical Twilight 5:22 AM CST 5:51 PM CST
Astronomical Twilight 4:53 AM CST 6:21 PM CST
Moon 10:24 AM CST (11/7) 9:09 PM CST (11/7)
Length of Visible Light 11h 29m
Length of Day
10h 37m
Waxing Crescent, 23% of the Moon is Illuminated
Nov 7
Waxing Crescent
Nov 9
First Quarter
Nov 17
Full
Nov 25
Last Quarter
Dec 2
New

Hourly Weather History & Observations

Time (CST) Temp. Windchill Dew Point Humidity Pressure Visibility Wind Dir Wind Speed Gust Speed Precip Events Conditions
12:02 AM 62.6 °F - 62.6 °F 100% 30.11 in 10.0 mi NW 4.6 mph - N/A   Light Drizzle
12:12 AM 62.6 °F - 62.6 °F 100% 30.12 in 10.0 mi WNW 6.9 mph - N/A   Light Drizzle
12:27 AM 62.6 °F - 62.6 °F 100% 30.11 in 10.0 mi WNW 5.8 mph - N/A Rain Light Rain
12:47 AM 57.2 °F - 57.2 °F 100% 30.13 in 10.0 mi NW 19.6 mph - N/A Rain Light Rain
12:51 AM 57.2 °F - 57.2 °F 100% 30.13 in 10.0 mi NW 19.6 mph - N/A   Overcast
12:58 AM 56.3 °F - 56.3 °F 100% 30.15 in 10.0 mi NW 16.1 mph - 0.00 in   Overcast
1:03 AM 55.4 °F - 55.4 °F 100% 30.13 in 10.0 mi NW 16.1 mph - N/A   Overcast
1:08 AM 55.4 °F - 55.4 °F 100% 30.14 in 10.0 mi NW 15.0 mph 20.7 mph N/A   Overcast
1:38 AM 53.6 °F - 53.6 °F 100% 30.15 in 10.0 mi NW 17.3 mph - N/A   Overcast
1:58 AM 53.6 °F - 51.8 °F 94% 30.17 in 10.0 mi NNW 17.3 mph 23.0 mph N/A   Overcast
2:23 AM 51.8 °F - 50.0 °F 94% 30.18 in 10.0 mi NW 18.4 mph - N/A   Overcast
2:58 AM 50.2 °F - 47.7 °F 91% 30.20 in 10.0 mi NW 15.0 mph 21.9 mph N/A   Overcast
3:58 AM 48.4 °F - 45.0 °F 88% 30.21 in 10.0 mi NNW 16.1 mph - N/A   Overcast
4:38 AM 46.4 °F 40.7 °F 42.8 °F 87% 30.21 in 10.0 mi NNW 12.7 mph - N/A   Overcast
4:58 AM 46.9 °F - 43.0 °F 86% 30.24 in 10.0 mi NNW 16.1 mph - N/A   Overcast
5:03 AM 46.4 °F 39.8 °F 42.8 °F 87% 30.23 in 10.0 mi NW 16.1 mph - N/A   Overcast
5:58 AM 45.9 °F 39.4 °F 41.7 °F 85% 30.28 in 10.0 mi NW 15.0 mph 27.6 mph N/A   Overcast
6:58 AM 45.5 °F 38.3 °F 39.6 °F 80% 30.32 in 10.0 mi North 17.3 mph 21.9 mph N/A   Overcast
7:58 AM 46.0 °F 38.0 °F 39.0 °F 76% 30.35 in 10.0 mi North 21.9 mph 27.6 mph N/A   Overcast
8:03 AM 46.4 °F 38.5 °F 39.2 °F 76% 30.34 in 10.0 mi North 21.9 mph 27.6 mph N/A   Overcast
8:08 AM 46.4 °F 39.0 °F 39.2 °F 76% 30.34 in 10.0 mi North 19.6 mph 28.8 mph N/A   Overcast
8:18 AM 46.4 °F 39.2 °F 39.2 °F 76% 30.34 in 10.0 mi NNW 18.4 mph - N/A   Overcast
8:58 AM 46.6 °F - 37.9 °F 72% 30.35 in 10.0 mi North 12.7 mph 24.2 mph N/A   Mostly Cloudy
9:38 AM 50.0 °F - 37.4 °F 62% 30.35 in 10.0 mi NNW 15.0 mph - N/A   Scattered Clouds
9:58 AM 50.4 °F - 38.7 °F 64% 30.36 in 10.0 mi North 12.7 mph 21.9 mph N/A   Clear
10:32 AM 51.8 °F - 37.4 °F 58% 30.35 in 10.0 mi NNW 17.3 mph - N/A   Partly Cloudy
10:58 AM 53.6 °F - 37.9 °F 55% 30.35 in 10.0 mi NNW 15.0 mph 23.0 mph N/A   Clear
11:58 AM 55.4 °F - 36.5 °F 49% 30.33 in 10.0 mi North 17.3 mph 26.5 mph N/A   Clear
12:58 PM 57.4 °F - 35.4 °F 44% 30.31 in 10.0 mi NNW 13.8 mph - N/A   Clear
1:58 PM 58.8 °F - 35.4 °F 42% 30.29 in 10.0 mi North 15.0 mph - N/A   Clear
2:27 PM 59.0 °F - 32.0 °F 36% 30.28 in 10.0 mi NW 13.8 mph 18.4 mph N/A   Clear
2:58 PM 58.3 °F - 31.1 °F 36% 30.29 in 10.0 mi NNW 16.1 mph 20.7 mph N/A   Clear
3:58 PM 57.4 °F - 30.7 °F 36% 30.30 in 10.0 mi NNW 12.7 mph 16.1 mph N/A   Clear
4:58 PM 52.7 °F - 32.4 °F 46% 30.30 in 10.0 mi North 6.9 mph - N/A   Clear
5:58 PM 48.9 °F - 34.7 °F 58% 30.32 in 10.0 mi NNW 5.8 mph - N/A   Clear
6:58 PM 45.9 °F 42.9 °F 34.2 °F 64% 30.34 in 10.0 mi NW 5.8 mph - N/A   Clear
7:58 PM 44.1 °F 40.1 °F 34.2 °F 68% 30.35 in 10.0 mi NW 6.9 mph - N/A   Clear
8:58 PM 42.1 °F 37.7 °F 33.6 °F 72% 30.36 in 10.0 mi NNW 6.9 mph - N/A   Clear
9:58 PM 41.5 °F 37.8 °F 34.0 °F 75% 30.36 in 8.0 mi NNW 5.8 mph - N/A   Clear
10:33 PM 41.0 °F - 32.0 °F 70% 30.36 in 4.0 mi NNW 2.3 mph - N/A   Haze
10:38 PM 41.0 °F 39.0 °F 33.8 °F 76% 30.36 in 3.0 mi NNW 3.5 mph - N/A   Haze
10:43 PM 41.0 °F 37.1 °F 33.8 °F 76% 30.35 in 4.0 mi NNW 5.8 mph - N/A   Haze
10:48 PM 41.0 °F 37.1 °F 33.8 °F 76% 30.35 in 5.0 mi NNW 5.8 mph - N/A   Haze
10:58 PM 41.0 °F 38.0 °F 34.5 °F 78% 30.36 in 5.0 mi NNW 4.6 mph - N/A   Haze
11:13 PM 41.0 °F - 32.0 °F 70% 30.35 in 4.0 mi North 2.3 mph - N/A   Haze
11:23 PM 41.0 °F - 33.8 °F 76% 30.35 in 5.0 mi Calm Calm - N/A   Haze
11:33 PM 39.2 °F - 33.8 °F 81% 30.35 in 4.0 mi Calm Calm - N/A   Haze
11:48 PM 35.6 °F - 32.0 °F 87% 30.35 in 5.0 mi Calm Calm - N/A   Clear
11:53 PM 35.6 °F - 32.0 °F 87% 30.35 in 4.0 mi NW 1.2 mph - N/A   Clear
11:58 PM 34.9 °F - 31.6 °F 88% 30.36 in 3.0 mi NNW 1.2 mph - N/A   Clear